Time,TemperatureF,DewpointF,PressureIn,WindDirection,WindDirectionDegrees,WindSpeedMPH,WindSpeedGustMPH,Humidity,HourlyPrecipIn,Conditions,Clouds,dailyrainin,SolarRadiationWatts/m^2,SoftwareType,DateUTC
2013-02-02 00:02:00,25.4,16.0,30.06,NNW,342,2.0,2.0,68,0.00,,,0.00,0,Custom,2013-02-02 06:02:00,
2013-02-02 00:07:00,25.4,16.0,30.05,NNW,342,0.0,2.0,68,0.00,,,0.00,0,Custom,2013-02-02 06:07:00,
2013-02-02 00:12:00,25.4,16.0,30.05,NNW,342,0.0,1.0,68,0.00,,,0.00,0,Custom,2013-02-02 06:12:00,
2013-02-02 00:17:00,25.2,16.0,30.05,NNW,342,0.0,1.0,69,0.00,,,0.00,0,Custom,2013-02-02 06:17:00,
2013-02-02 00:22:00,25.2,16.0,30.05,NNW,342,0.0,2.0,68,0.00,,,0.00,0,Custom,2013-02-02 06:22:00,
2013-02-02 00:27:00,25.0,16.0,30.05,NNW,342,0.0,2.0,69,0.00,,,0.00,0,Custom,2013-02-02 06:27:00,
2013-02-02 00:32:00,24.3,16.0,30.05,NNW,342,0.0,0.0,70,0.00,,,0.00,0,Custom,2013-02-02 06:32:00,
2013-02-02 00:37:00,24.2,16.0,30.05,NNW,342,0.0,1.0,70,0.00,,,0.00,0,Custom,2013-02-02 06:37:00,
2013-02-02 00:42:00,24.0,16.0,30.05,NNW,342,0.0,0.0,72,0.00,,,0.00,0,Custom,2013-02-02 06:42:00,
2013-02-02 00:47:00,23.9,16.0,30.05,NNW,342,0.0,1.0,72,0.00,,,0.00,0,Custom,2013-02-02 06:47:00,
2013-02-02 00:52:00,24.0,16.0,30.05,NNW,342,1.0,0.0,73,0.00,,,0.00,0,Custom,2013-02-02 06:52:00,
2013-02-02 00:57:00,24.0,16.0,30.05,NNW,342,2.0,2.0,72,0.00,,,0.00,0,Custom,2013-02-02 06:57:00,
2013-02-02 01:02:00,24.0,17.0,30.05,NNW,342,0.0,3.0,72,0.00,,,0.00,0,Custom,2013-02-02 07:02:00,
2013-02-02 01:07:00,23.9,16.0,30.05,NNW,342,0.0,0.0,73,0.00,,,0.00,0,Custom,2013-02-02 07:07:00,
2013-02-02 01:12:00,23.5,16.0,30.05,NNW,342,0.0,1.0,73,0.00,,,0.00,0,Custom,2013-02-02 07:12:00,
2013-02-02 01:17:00,23.5,16.0,30.05,NNW,342,0.0,1.0,73,0.00,,,0.00,0,Custom,2013-02-02 07:17:00,
2013-02-02 01:22:00,22.8,16.0,30.05,NNW,342,0.0,0.0,73,0.00,,,0.00,0,Custom,2013-02-02 07:22:00,
2013-02-02 01:27:00,22.8,16.0,30.05,NNW,342,0.0,0.0,75,0.00,,,0.00,0,Custom,2013-02-02 07:27:00,
2013-02-02 01:32:00,23.2,17.0,30.05,NNW,342,0.0,1.0,75,0.00,,,0.00,0,Custom,2013-02-02 07:32:00,
2013-02-02 01:37:00,23.4,17.0,30.05,NNW,342,0.0,0.0,76,0.00,,,0.00,0,Custom,2013-02-02 07:37:00,
2013-02-02 01:42:00,23.7,17.0,30.05,NNW,342,0.0,0.0,75,0.00,,,0.00,0,Custom,2013-02-02 07:42:00,
2013-02-02 01:47:00,23.9,17.0,30.05,NNW,342,0.0,0.0,75,0.00,,,0.00,0,Custom,2013-02-02 07:47:00,
2013-02-02 01:52:00,24.3,17.0,30.05,NNW,342,1.0,1.0,74,0.00,,,0.00,0,Custom,2013-02-02 07:52:00,
2013-02-02 01:57:00,24.5,18.0,30.05,NNW,342,0.0,2.0,74,0.00,,,0.00,0,Custom,2013-02-02 07:57:00,
2013-02-02 02:06:00,24.7,18.0,30.04,NNW,342,1.0,2.0,74,0.00,,,0.00,0,Custom,2013-02-02 08:06:00,
2013-02-02 02:11:00,25.0,17.0,30.04,NNW,342,0.0,1.0,72,0.00,,,0.00,0,Custom,2013-02-02 08:11:00,
2013-02-02 02:16:00,24.9,17.0,30.04,NNW,342,0.0,1.0,73,0.00,,,0.00,0,Custom,2013-02-02 08:16:00,
2013-02-02 02:21:00,25.0,18.0,30.04,NNW,342,0.0,1.0,73,0.00,,,0.00,0,Custom,2013-02-02 08:21:00,
2013-02-02 02:26:00,25.3,18.0,30.04,NNW,342,0.0,1.0,73,0.00,,,0.00,0,Custom,2013-02-02 08:26:00,
2013-02-02 02:31:00,25.6,18.0,30.04,NNW,342,0.0,3.0,72,0.00,,,0.00,0,Custom,2013-02-02 08:31:00,
2013-02-02 02:36:00,25.8,18.0,30.04,NNW,342,0.0,3.0,72,0.00,,,0.00,0,Custom,2013-02-02 08:36:00,
2013-02-02 02:41:00,26.1,18.0,30.04,NNW,342,0.0,3.0,71,0.00,,,0.00,0,Custom,2013-02-02 08:41:00,
2013-02-02 02:46:00,26.2,18.0,30.04,NNW,342,0.0,2.0,71,0.00,,,0.00,0,Custom,2013-02-02 08:46:00,
2013-02-02 02:51:00,26.2,18.0,30.05,NNW,342,0.0,0.0,71,0.00,,,0.00,0,Custom,2013-02-02 08:51:00,
2013-02-02 02:56:00,26.2,18.0,30.05,NNW,342,0.0,0.0,71,0.00,,,0.00,0,Custom,2013-02-02 08:56:00,
2013-02-02 03:01:00,26.3,18.0,30.05,NNW,342,0.0,0.0,71,0.00,,,0.00,0,Custom,2013-02-02 09:01:00,
2013-02-02 03:06:00,26.4,18.0,30.05,NNW,342,0.0,1.0,70,0.00,,,0.00,0,Custom,2013-02-02 09:06:00,
2013-02-02 03:11:00,26.3,18.0,30.05,NNW,342,0.0,1.0,71,0.00,,,0.00,0,Custom,2013-02-02 09:11:00,
2013-02-02 03:16:00,26.3,18.0,30.05,NNW,342,0.0,3.0,70,0.00,,,0.00,0,Custom,2013-02-02 09:16:00,
2013-02-02 03:21:00,26.2,18.0,30.05,NNW,342,0.0,1.0,71,0.00,,,0.00,0,Custom,2013-02-02 09:21:00,
2013-02-02 03:26:00,26.2,18.0,30.05,NNW,342,0.0,1.0,71,0.00,,,0.00,0,Custom,2013-02-02 09:26:00,
2013-02-02 03:31:00,26.2,18.0,30.05,NNW,342,0.0,1.0,71,0.00,,,0.00,0,Custom,2013-02-02 09:31:00,
2013-02-02 03:36:00,26.1,18.0,30.05,NNW,342,0.0,0.0,71,0.00,,,0.00,0,Custom,2013-02-02 09:36:00,
2013-02-02 03:41:00,26.0,18.0,30.05,NNW,342,2.0,0.0,71,0.00,,,0.00,0,Custom,2013-02-02 09:41:00,
2013-02-02 03:46:00,25.8,18.0,30.05,NNW,342,0.0,2.0,72,0.00,,,0.00,0,Custom,2013-02-02 09:46:00,
2013-02-02 03:51:00,25.6,18.0,30.05,NNW,342,0.0,0.0,72,0.00,,,0.00,0,Custom,2013-02-02 09:51:00,
2013-02-02 03:56:00,25.6,18.0,30.05,NNW,342,0.0,2.0,73,0.00,,,0.00,0,Custom,2013-02-02 09:56:00,
2013-02-02 04:01:00,25.4,18.0,30.05,NNW,342,0.0,0.0,73,0.00,,,0.00,0,Custom,2013-02-02 10:01:00,
2013-02-02 04:06:00,25.4,18.0,30.04,NNW,342,0.0,1.0,74,0.00,,,0.00,0,Custom,2013-02-02 10:06:00,
2013-02-02 04:11:00,25.6,18.0,30.04,NNW,342,0.0,2.0,73,0.00,,,0.00,0,Custom,2013-02-02 10:11:00,
2013-02-02 04:16:00,26.1,19.0,30.04,NNW,342,0.0,1.0,74,0.00,,,0.00,0,Custom,2013-02-02 10:16:00,
2013-02-02 04:21:00,26.5,19.0,30.04,NNW,342,0.0,2.0,73,0.00,,,0.00,0,Custom,2013-02-02 10:21:00,
2013-02-02 04:26:00,26.7,19.0,30.05,NNW,342,0.0,1.0,73,0.00,,,0.00,0,Custom,2013-02-02 10:26:00,
2013-02-02 04:31:00,26.9,19.0,30.05,NNW,342,0.0,0.0,72,0.00,,,0.00,0,Custom,2013-02-02 10:31:00,
2013-02-02 04:36:00,27.3,19.0,30.05,NNW,342,0.0,2.0,72,0.00,,,0.00,0,Custom,2013-02-02 10:36:00,
2013-02-02 04:41:00,27.5,20.0,30.05,NNW,342,0.0,2.0,72,0.00,,,0.00,0,Custom,2013-02-02 10:41:00,
2013-02-02 04:46:00,27.9,20.0,30.05,NNW,342,0.0,1.0,71,0.00,,,0.00,0,Custom,2013-02-02 10:46:00,
2013-02-02 04:51:00,27.9,20.0,30.05,NNW,342,2.0,3.0,70,0.00,,,0.00,0,Custom,2013-02-02 10:51:00,
2013-02-02 04:56:00,28.3,20.0,30.05,NNW,342,0.0,4.0,69,0.00,,,0.00,0,Custom,2013-02-02 10:56:00,
2013-02-02 05:01:00,28.4,19.0,30.05,NNW,342,0.0,2.0,69,0.00,,,0.00,0,Custom,2013-02-02 11:01:00,
2013-02-02 05:06:00,28.6,20.0,30.05,NNW,342,0.0,5.0,69,0.00,,,0.00,0,Custom,2013-02-02 11:06:00,
2013-02-02 05:11:00,28.5,19.0,30.05,NNW,342,0.0,1.0,69,0.00,,,0.00,0,Custom,2013-02-02 11:11:00,
2013-02-02 05:16:00,28.4,19.0,30.05,NNW,342,0.0,1.0,69,0.00,,,0.00,0,Custom,2013-02-02 11:16:00,
2013-02-02 05:21:00,28.3,20.0,30.05,NNW,342,1.0,1.0,69,0.00,,,0.00,0,Custom,2013-02-02 11:21:00,
2013-02-02 05:26:00,28.3,20.0,30.05,NNW,342,0.0,1.0,69,0.00,,,0.00,0,Custom,2013-02-02 11:26:00,
2013-02-02 05:31:00,28.5,20.0,30.05,NNW,342,0.0,1.0,69,0.00,,,0.00,0,Custom,2013-02-02 11:31:00,
2013-02-02 05:36:00,28.9,20.0,30.06,NNW,342,0.0,2.0,69,0.00,,,0.00,0,Custom,2013-02-02 11:36:00,
2013-02-02 05:41:00,29.1,20.0,30.06,NNW,342,0.0,2.0,68,0.00,,,0.00,0,Custom,2013-02-02 11:41:00,
2013-02-02 05:46:00,29.4,20.0,30.06,NNW,342,0.0,4.0,67,0.00,,,0.00,0,Custom,2013-02-02 11:46:00,
2013-02-02 05:51:00,29.4,20.0,30.05,NNW,342,0.0,1.0,67,0.00,,,0.00,0,Custom,2013-02-02 11:51:00,
2013-02-02 05:56:00,29.3,20.0,30.06,NNW,342,0.0,1.0,67,0.00,,,0.00,0,Custom,2013-02-02 11:56:00,
2013-02-02 06:01:00,29.4,20.0,30.05,NNW,342,0.0,2.0,67,0.00,,,0.00,0,Custom,2013-02-02 12:01:00,
2013-02-02 06:06:00,29.6,20.0,30.06,NNW,342,0.0,2.0,67,0.00,,,0.00,0,Custom,2013-02-02 12:06:00,
2013-02-02 06:11:00,29.4,20.0,30.06,NNW,342,0.0,5.0,67,0.00,,,0.00,0,Custom,2013-02-02 12:11:00,
2013-02-02 06:16:00,29.4,20.0,30.06,NNW,342,0.0,1.0,67,0.00,,,0.00,0,Custom,2013-02-02 12:16:00,
2013-02-02 06:21:00,29.2,20.0,30.06,NNW,342,0.0,1.0,68,0.00,,,0.00,0,Custom,2013-02-02 12:21:00,
2013-02-02 06:26:00,29.3,20.0,30.06,NNW,342,0.0,3.0,68,0.00,,,0.00,0,Custom,2013-02-02 12:26:00,
2013-02-02 06:31:00,29.4,20.0,30.06,NNW,342,0.0,2.0,68,0.00,,,0.00,0,Custom,2013-02-02 12:31:00,
2013-02-02 06:36:00,29.2,20.0,30.06,NNW,342,0.0,1.0,68,0.00,,,0.00,0,Custom,2013-02-02 12:36:00,
2013-02-02 06:41:00,28.9,20.0,30.06,NNW,342,0.0,1.0,68,0.00,,,0.00,0,Custom,2013-02-02 12:41:00,
2013-02-02 06:46:00,28.6,20.0,30.07,NNW,342,0.0,3.0,68,0.00,,,0.00,0,Custom,2013-02-02 12:46:00,
2013-02-02 06:51:00,28.4,20.0,30.07,NNW,342,0.0,0.0,69,0.00,,,0.00,0,Custom,2013-02-02 12:51:00,
2013-02-02 06:56:00,28.3,20.0,30.07,NNW,342,0.0,0.0,69,0.00,,,0.00,0,Custom,2013-02-02 12:56:00,
2013-02-02 07:01:00,27.6,19.0,30.07,NNW,342,0.0,1.0,70,0.00,,,0.00,0,Custom,2013-02-02 13:01:00,
2013-02-02 07:06:00,27.5,19.0,30.07,NNW,342,0.0,1.0,70,0.00,,,0.00,0,Custom,2013-02-02 13:06:00,
2013-02-02 07:11:00,26.8,19.0,30.07,NNW,342,0.0,0.0,71,0.00,,,0.00,0,Custom,2013-02-02 13:11:00,
2013-02-02 07:16:00,26.5,19.0,30.08,NNW,342,0.0,0.0,72,0.00,,,0.00,0,Custom,2013-02-02 13:16:00,
2013-02-02 07:21:00,26.3,19.0,30.08,NNW,342,0.0,0.0,73,0.00,,,0.00,0,Custom,2013-02-02 13:21:00,
2013-02-02 07:26:00,27.1,20.0,30.09,NNW,342,0.0,1.0,74,0.00,,,0.00,0,Custom,2013-02-02 13:26:00,
2013-02-02 07:31:00,27.5,20.0,30.08,NNW,342,0.0,1.0,73,0.00,,,0.00,0,Custom,2013-02-02 13:31:00,
2013-02-02 07:36:00,27.6,20.0,30.08,NNW,342,0.0,1.0,73,0.00,,,0.00,8.19,Custom,2013-02-02 13:36:00,
2013-02-02 07:41:00,27.6,20.0,30.08,NNW,342,0.0,0.0,73,0.00,,,0.00,17.55,Custom,2013-02-02 13:41:00,
2013-02-02 07:46:00,28.4,21.0,30.08,NNW,342,0.0,1.0,73,0.00,,,0.00,23.01,Custom,2013-02-02 13:46:00,
2013-02-02 07:51:00,28.5,21.0,30.08,NNW,342,0.0,1.0,72,0.00,,,0.00,27.69,Custom,2013-02-02 13:51:00,
2013-02-02 07:56:00,28.9,21.0,30.08,NNW,342,0.0,2.0,72,0.00,,,0.00,31.59,Custom,2013-02-02 13:56:00,
2013-02-02 08:01:00,29.1,21.0,30.09,NNW,342,0.0,0.0,72,0.00,,,0.00,37.44,Custom,2013-02-02 14:01:00,
2013-02-02 08:06:00,29.3,21.0,30.09,NNW,342,0.0,1.0,71,0.00,,,0.00,39.39,Custom,2013-02-02 14:06:00,
2013-02-02 08:11:00,29.5,21.0,30.08,NNW,342,0.0,0.0,71,0.00,,,0.00,39.39,Custom,2013-02-02 14:11:00,
2013-02-02 08:16:00,29.7,22.0,30.08,NNW,342,0.0,1.0,72,0.00,,,0.00,40.95,Custom,2013-02-02 14:16:00,
2013-02-02 08:21:00,29.8,22.0,30.08,NNW,342,0.0,0.0,72,0.00,,,0.00,50.31,Custom,2013-02-02 14:21:00,
2013-02-02 08:26:00,30.1,22.0,30.08,NNW,342,0.0,0.0,72,0.00,,,0.00,74.88,Custom,2013-02-02 14:26:00,
2013-02-02 08:31:00,30.8,23.0,30.09,NNW,342,0.0,0.0,71,0.00,,,0.00,88.14,Custom,2013-02-02 14:31:00,
2013-02-02 08:36:00,31.7,23.0,30.09,NNW,342,0.0,0.0,69,0.00,,,0.00,104.91,Custom,2013-02-02 14:36:00,
2013-02-02 08:41:00,32.2,23.0,30.09,NNW,341,0.0,1.0,67,0.00,,,0.00,78.39,Custom,2013-02-02 14:41:00,
2013-02-02 08:46:00,32.0,23.0,30.09,WNW,288,0.0,3.0,68,0.00,,,0.00,71.76,Custom,2013-02-02 14:46:00,
2013-02-02 08:51:00,32.0,23.0,30.09,WNW,288,0.0,2.0,69,0.00,,,0.00,56.16,Custom,2013-02-02 14:51:00,
2013-02-02 08:56:00,32.1,23.0,30.09,WNW,288,0.0,1.0,69,0.00,,,0.00,49.92,Custom,2013-02-02 14:56:00,
2013-02-02 09:01:00,32.1,23.0,30.09,WNW,288,0.0,0.0,70,0.00,,,0.00,90.48,Custom,2013-02-02 15:01:00,
2013-02-02 09:06:00,32.7,24.0,30.09,WNW,288,0.0,1.0,69,0.00,,,0.00,86.19,Custom,2013-02-02 15:06:00,
2013-02-02 09:11:00,32.9,23.0,30.09,WNW,288,0.0,0.0,68,0.00,,,0.00,109.2,Custom,2013-02-02 15:11:00,
2013-02-02 09:16:00,33.2,24.0,30.08,WNW,288,0.0,0.0,68,0.00,,,0.00,97.89,Custom,2013-02-02 15:16:00,
2013-02-02 09:21:00,35.1,24.0,30.08,WNW,288,0.0,0.0,65,0.00,,,0.00,251.55,Custom,2013-02-02 15:21:00,
2013-02-02 09:26:00,36.1,24.0,30.08,WNW,288,0.0,0.0,60,0.00,,,0.00,266.76,Custom,2013-02-02 15:26:00,
2013-02-02 09:31:00,36.5,23.0,30.09,WNW,289,0.0,2.0,57,0.00,,,0.00,280.02,Custom,2013-02-02 15:31:00,
2013-02-02 09:36:00,36.5,22.0,30.08,WNW,289,0.0,0.0,57,0.00,,,0.00,290.55,Custom,2013-02-02 15:36:00,
2013-02-02 09:41:00,36.9,23.0,30.08,WNW,289,0.0,2.0,57,0.00,,,0.00,306.54,Custom,2013-02-02 15:41:00,
2013-02-02 09:46:00,37.6,24.0,30.08,WNW,289,0.0,3.0,57,0.00,,,0.00,324.87,Custom,2013-02-02 15:46:00,
2013-02-02 09:51:00,38.1,24.0,30.09,WNW,288,2.0,3.0,55,0.00,,,0.00,330.33,Custom,2013-02-02 15:51:00,
2013-02-02 09:56:00,38.0,24.0,30.09,West,271,0.0,3.0,56,0.00,,,0.00,345.54,Custom,2013-02-02 15:56:00,
2013-02-02 10:01:00,38.3,23.0,30.08,West,269,0.0,2.0,54,0.00,,,0.00,353.73,Custom,2013-02-02 16:01:00,
2013-02-02 10:06:00,39.6,24.0,30.09,West,269,0.0,0.0,54,0.00,,,0.00,365.82,Custom,2013-02-02 16:06:00,
2013-02-02 10:11:00,39.7,24.0,30.09,West,269,0.0,0.0,53,0.00,,,0.00,374.79,Custom,2013-02-02 16:11:00,
2013-02-02 10:16:00,40.0,25.0,30.09,NNW,343,0.0,0.0,54,0.00,,,0.00,386.1,Custom,2013-02-02 16:16:00,
2013-02-02 10:21:00,40.7,26.0,30.09,NNW,343,0.0,2.0,54,0.00,,,0.00,526.89,Custom,2013-02-02 16:21:00,
2013-02-02 10:26:00,40.6,25.0,30.09,NNW,343,0.0,0.0,54,0.00,,,0.00,234.78,Custom,2013-02-02 16:26:00,
2013-02-02 10:31:00,39.9,25.0,30.09,WNW,291,0.0,4.0,55,0.00,,,0.00,260.13,Custom,2013-02-02 16:31:00,
2013-02-02 10:36:00,40.5,25.0,30.09,North,0,0.0,3.0,53,0.00,,,0.00,307.71,Custom,2013-02-02 16:36:00,
2013-02-02 10:41:00,40.0,26.0,30.10,WNW,299,0.0,3.0,56,0.00,,,0.00,248.82,Custom,2013-02-02 16:41:00,
2013-02-02 10:46:00,39.8,26.0,30.10,NW,310,0.0,1.0,57,0.00,,,0.00,187.98,Custom,2013-02-02 16:46:00,
2013-02-02 10:51:00,39.1,26.0,30.10,North,0,0.0,3.0,59,0.00,,,0.00,187.2,Custom,2013-02-02 16:51:00,
2013-02-02 10:56:00,39.2,25.0,30.10,North,360,0.0,2.0,57,0.00,,,0.00,231.66,Custom,2013-02-02 16:56:00,
2013-02-02 11:01:00,40.2,26.0,30.11,North,360,0.0,2.0,55,0.00,,,0.00,274.17,Custom,2013-02-02 17:01:00,
2013-02-02 11:06:00,39.8,26.0,30.11,WNW,282,0.0,4.0,57,0.00,,,0.00,198.9,Custom,2013-02-02 17:06:00,
2013-02-02 11:11:00,39.1,25.0,30.11,North,3,0.0,4.0,58,0.00,,,0.00,198.9,Custom,2013-02-02 17:11:00,
2013-02-02 11:16:00,39.6,26.0,30.11,WNW,303,0.0,3.0,59,0.00,,,0.00,252.33,Custom,2013-02-02 17:16:00,
2013-02-02 11:21:00,40.3,26.0,30.10,WNW,303,2.0,2.0,58,0.00,,,0.00,307.71,Custom,2013-02-02 17:21:00,
2013-02-02 11:26:00,42.0,28.0,30.10,WNW,297,0.0,2.0,57,0.00,,,0.00,333.06,Custom,2013-02-02 17:26:00,
2013-02-02 11:31:00,41.0,26.0,30.11,North,0,0.0,3.0,54,0.00,,,0.00,280.02,Custom,2013-02-02 17:31:00,
2013-02-02 11:36:00,41.2,27.0,30.10,WNW,300,0.0,3.0,56,0.00,,,0.00,317.07,Custom,2013-02-02 17:36:00,
2013-02-02 11:41:00,41.5,26.0,30.09,WNW,300,0.0,2.0,54,0.00,,,0.00,304.98,Custom,2013-02-02 17:41:00,
2013-02-02 11:46:00,41.7,26.0,30.09,WNW,298,0.0,2.0,54,0.00,,,0.00,288.99,Custom,2013-02-02 17:46:00,
2013-02-02 11:51:00,43.2,28.0,30.09,NW,326,0.0,2.0,54,0.00,,,0.00,564.72,Custom,2013-02-02 17:51:00,
2013-02-02 11:56:00,42.7,27.0,30.09,NNE,26,0.0,6.0,54,0.00,,,0.00,619.32,Custom,2013-02-02 17:56:00,
2013-02-02 12:01:00,43.2,27.0,30.09,NNW,340,2.0,3.0,53,0.00,,,0.00,327.99,Custom,2013-02-02 18:01:00,
2013-02-02 12:06:00,42.6,27.0,30.09,WSW,250,3.0,4.0,54,0.00,,,0.00,265.59,Custom,2013-02-02 18:06:00,
2013-02-02 12:11:00,43.5,28.0,30.09,West,275,0.0,3.0,55,0.00,,,0.00,763.62,Custom,2013-02-02 18:11:00,
2013-02-02 12:16:00,43.7,29.0,30.09,West,275,0.0,2.0,55,0.00,,,0.00,223.86,Custom,2013-02-02 18:16:00,
2013-02-02 12:21:00,44.6,29.0,30.09,West,275,0.0,0.0,54,0.00,,,0.00,565.89,Custom,2013-02-02 18:21:00,
2013-02-02 12:26:00,45.2,30.0,30.08,West,275,0.0,2.0,56,0.00,,,0.00,560.43,Custom,2013-02-02 18:26:00,
2013-02-02 12:31:00,46.4,30.0,30.08,West,278,0.0,0.0,53,0.00,,,0.00,513.24,Custom,2013-02-02 18:31:00,
2013-02-02 12:36:00,45.8,29.0,30.08,West,278,2.0,2.0,51,0.00,,,0.00,232.44,Custom,2013-02-02 18:36:00,
2013-02-02 12:41:00,45.5,30.0,30.08,West,278,0.0,3.0,54,0.00,,,0.00,636.09,Custom,2013-02-02 18:41:00,
2013-02-02 12:46:00,44.3,28.0,30.08,West,277,0.0,3.0,52,0.00,,,0.00,293.67,Custom,2013-02-02 18:46:00,
2013-02-02 12:51:00,44.6,30.0,30.08,West,277,0.0,3.0,56,0.00,,,0.00,542.88,Custom,2013-02-02 18:51:00,
2013-02-02 12:56:00,45.8,31.0,30.07,WNW,284,2.0,5.0,56,0.00,,,0.00,533.52,Custom,2013-02-02 18:56:00,
2013-02-02 13:01:00,46.5,32.0,30.07,NW,307,5.0,5.0,57,0.00,,,0.00,530.01,Custom,2013-02-02 19:01:00,
2013-02-02 13:06:00,46.4,32.0,30.06,NNW,343,0.0,5.0,57,0.00,,,0.00,522.6,Custom,2013-02-02 19:06:00,
2013-02-02 13:11:00,47.3,31.0,30.06,NW,305,4.0,4.0,54,0.00,,,0.00,517.14,Custom,2013-02-02 19:11:00,
2013-02-02 13:16:00,47.8,33.0,30.06,WNW,292,0.0,7.0,56,0.00,,,0.00,517.53,Custom,2013-02-02 19:16:00,
2013-02-02 13:21:00,48.6,33.0,30.06,West,280,0.0,3.0,54,0.00,,,0.00,513.63,Custom,2013-02-02 19:21:00,
2013-02-02 13:26:00,48.2,32.0,30.05,West,278,0.0,4.0,53,0.00,,,0.00,511.29,Custom,2013-02-02 19:26:00,
2013-02-02 13:31:00,48.5,32.0,30.05,West,274,2.0,4.0,54,0.00,,,0.00,501.15,Custom,2013-02-02 19:31:00,
2013-02-02 13:36:00,48.8,33.0,30.05,West,275,0.0,4.0,55,0.00,,,0.00,494.52,Custom,2013-02-02 19:36:00,
2013-02-02 13:41:00,48.7,33.0,30.05,WNW,295,4.0,4.0,54,0.00,,,0.00,489.06,Custom,2013-02-02 19:41:00,
2013-02-02 13:46:00,48.7,33.0,30.05,West,281,0.0,3.0,53,0.00,,,0.00,484.77,Custom,2013-02-02 19:46:00,
2013-02-02 13:51:00,49.3,33.0,30.05,West,275,0.0,2.0,52,0.00,,,0.00,475.02,Custom,2013-02-02 19:51:00,
2013-02-02 13:56:00,49.9,33.0,30.05,WNW,286,0.0,3.0,52,0.00,,,0.00,472.29,Custom,2013-02-02 19:56:00,
2013-02-02 14:01:00,49.7,32.0,30.05,West,267,0.0,5.0,51,0.00,,,0.00,463.32,Custom,2013-02-02 20:01:00,
2013-02-02 14:06:00,50.0,32.0,30.05,WNW,291,2.0,5.0,50,0.00,,,0.00,452.79,Custom,2013-02-02 20:06:00,
2013-02-02 14:11:00,49.4,31.0,30.05,WNW,284,1.0,4.0,49,0.00,,,0.00,447.33,Custom,2013-02-02 20:11:00,
2013-02-02 14:16:00,49.6,31.0,30.05,West,274,0.0,5.0,49,0.00,,,0.00,439.92,Custom,2013-02-02 20:16:00,
2013-02-02 14:21:00,49.8,32.0,30.05,WNW,285,3.0,5.0,51,0.00,,,0.00,430.56,Custom,2013-02-02 20:21:00,
2013-02-02 14:26:00,50.0,32.0,30.05,WNW,290,4.0,6.0,49,0.00,,,0.00,420.03,Custom,2013-02-02 20:26:00,
2013-02-02 14:31:00,49.7,32.0,30.05,WNW,283,2.0,3.0,50,0.00,,,0.00,409.5,Custom,2013-02-02 20:31:00,
2013-02-02 14:36:00,51.4,34.0,30.05,West,279,2.0,2.0,50,0.00,,,0.00,399.75,Custom,2013-02-02 20:36:00,
2013-02-02 14:41:00,51.4,33.0,30.05,WNW,288,4.0,5.0,49,0.00,,,0.00,387.66,Custom,2013-02-02 20:41:00,
2013-02-02 14:46:00,50.6,32.0,30.05,WNW,293,1.0,4.0,50,0.00,,,0.00,375.96,Custom,2013-02-02 20:46:00,
2013-02-02 14:51:00,50.9,33.0,30.05,West,267,0.0,5.0,51,0.00,,,0.00,363.87,Custom,2013-02-02 20:51:00,
2013-02-02 14:56:00,51.2,34.0,30.05,West,280,0.0,6.0,52,0.00,,,0.00,347.1,Custom,2013-02-02 20:56:00,
2013-02-02 15:01:00,51.7,34.0,30.05,West,276,0.0,4.0,50,0.00,,,0.00,342.42,Custom,2013-02-02 21:01:00,
2013-02-02 15:06:00,50.5,33.0,30.05,West,279,0.0,6.0,50,0.00,,,0.00,332.28,Custom,2013-02-02 21:06:00,
2013-02-02 15:11:00,49.9,33.0,30.05,WNW,286,0.0,6.0,53,0.00,,,0.00,367.38,Custom,2013-02-02 21:11:00,
2013-02-02 15:16:00,51.5,34.0,30.05,WNW,288,3.0,4.0,51,0.00,,,0.00,297.96,Custom,2013-02-02 21:16:00,
2013-02-02 15:21:00,51.6,34.0,30.04,WNW,288,0.0,3.0,50,0.00,,,0.00,211.77,Custom,2013-02-02 21:21:00,
2013-02-02 15:26:00,51.2,34.0,30.04,West,270,0.0,3.0,51,0.00,,,0.00,226.2,Custom,2013-02-02 21:26:00,
2013-02-02 15:31:00,51.4,34.0,30.04,West,260,4.0,4.0,52,0.00,,,0.00,256.62,Custom,2013-02-02 21:31:00,
2013-02-02 15:36:00,51.2,34.0,30.04,WNW,298,1.0,5.0,51,0.00,,,0.00,246.09,Custom,2013-02-02 21:36:00,
2013-02-02 15:41:00,51.0,34.0,30.05,WNW,287,0.0,7.0,52,0.00,,,0.00,237.51,Custom,2013-02-02 21:41:00,
2013-02-02 15:46:00,51.2,34.0,30.04,West,280,1.0,4.0,51,0.00,,,0.00,174.72,Custom,2013-02-02 21:46:00,
2013-02-02 15:51:00,50.7,34.0,30.03,WNW,289,0.0,5.0,52,0.00,,,0.00,185.25,Custom,2013-02-02 21:51:00,
2013-02-02 15:56:00,50.8,34.0,30.03,WNW,294,2.0,6.0,52,0.00,,,0.00,181.74,Custom,2013-02-02 21:56:00,
2013-02-02 16:01:00,51.5,35.0,30.02,West,277,0.0,4.0,52,0.00,,,0.00,168.48,Custom,2013-02-02 22:01:00,
2013-02-02 16:06:00,51.6,34.0,30.03,West,277,0.0,3.0,51,0.00,,,0.00,151.71,Custom,2013-02-02 22:06:00,
2013-02-02 16:11:00,51.8,35.0,30.03,West,279,0.0,3.0,52,0.00,,,0.00,134.16,Custom,2013-02-02 22:11:00,
2013-02-02 16:16:00,51.2,34.0,30.04,WNW,295,1.0,4.0,52,0.00,,,0.00,116.22,Custom,2013-02-02 22:16:00,
2013-02-02 16:21:00,50.7,34.0,30.04,WNW,294,0.0,3.0,52,0.00,,,0.00,81.12,Custom,2013-02-02 22:21:00,
2013-02-02 16:26:00,50.2,34.0,30.03,WNW,294,0.0,2.0,54,0.00,,,0.00,44.46,Custom,2013-02-02 22:26:00,
2013-02-02 16:31:00,49.6,34.0,30.04,WNW,294,0.0,4.0,55,0.00,,,0.00,28.08,Custom,2013-02-02 22:31:00,
2013-02-02 16:36:00,48.8,34.0,30.04,WNW,294,0.0,1.0,57,0.00,,,0.00,24.18,Custom,2013-02-02 22:36:00,
2013-02-02 16:41:00,48.3,34.0,30.04,WNW,294,0.0,2.0,58,0.00,,,0.00,19.89,Custom,2013-02-02 22:41:00,
2013-02-02 16:46:00,47.7,34.0,30.04,WNW,294,0.0,0.0,59,0.00,,,0.00,17.16,Custom,2013-02-02 22:46:00,
2013-02-02 16:51:00,46.9,34.0,30.04,WNW,294,0.0,0.0,60,0.00,,,0.00,16.38,Custom,2013-02-02 22:51:00,
2013-02-02 16:56:00,46.5,34.0,30.03,WNW,294,0.0,0.0,61,0.00,,,0.00,15.21,Custom,2013-02-02 22:56:00,
2013-02-02 17:01:00,45.8,34.0,30.03,WNW,294,0.0,0.0,62,0.00,,,0.00,14.43,Custom,2013-02-02 23:01:00,
2013-02-02 17:06:00,45.4,34.0,30.03,WNW,294,0.0,0.0,63,0.00,,,0.00,13.26,Custom,2013-02-02 23:06:00,
2013-02-02 17:11:00,45.2,33.0,30.03,WNW,294,0.0,0.0,63,0.00,,,0.00,12.48,Custom,2013-02-02 23:11:00,
2013-02-02 17:16:00,44.6,33.0,30.03,WNW,294,0.0,0.0,65,0.00,,,0.00,11.31,Custom,2013-02-02 23:16:00,
2013-02-02 17:21:00,44.3,34.0,30.03,WNW,294,0.0,0.0,66,0.00,,,0.00,10.14,Custom,2013-02-02 23:21:00,
2013-02-02 17:26:00,43.8,33.0,30.03,WNW,294,0.0,0.0,66,0.00,,,0.00,8.58,Custom,2013-02-02 23:26:00,
2013-02-02 17:31:00,43.0,33.0,30.03,WNW,294,0.0,0.0,67,0.00,,,0.00,0,Custom,2013-02-02 23:31:00,
2013-02-02 17:36:00,42.4,33.0,30.03,WNW,294,0.0,0.0,68,0.00,,,0.00,0,Custom,2013-02-02 23:36:00,
2013-02-02 17:41:00,41.8,32.0,30.03,WNW,294,0.0,0.0,68,0.00,,,0.00,0,Custom,2013-02-02 23:41:00,
2013-02-02 17:46:00,41.2,32.0,30.03,WNW,294,0.0,0.0,69,0.00,,,0.00,0,Custom,2013-02-02 23:46:00,
2013-02-02 17:51:00,40.7,32.0,30.04,WNW,294,0.0,0.0,70,0.00,,,0.00,0,Custom,2013-02-02 23:51:00,
2013-02-02 17:56:00,40.1,31.0,30.04,WNW,294,0.0,0.0,71,0.00,,,0.00,0,Custom,2013-02-02 23:56:00,
2013-02-02 18:01:00,39.3,31.0,30.04,WNW,294,0.0,0.0,72,0.00,,,0.00,0,Custom,2013-02-03 00:01:00,
2013-02-02 18:06:00,39.2,31.0,30.03,WNW,294,0.0,0.0,74,0.00,,,0.00,0,Custom,2013-02-03 00:06:00,
2013-02-02 18:11:00,38.5,31.0,30.03,WNW,294,0.0,0.0,74,0.00,,,0.00,0,Custom,2013-02-03 00:11:00,
2013-02-02 18:16:00,37.9,31.0,30.03,WNW,294,0.0,0.0,75,0.00,,,0.00,0,Custom,2013-02-03 00:16:00,
2013-02-02 18:21:00,37.2,30.0,30.03,WNW,294,0.0,0.0,75,0.00,,,0.00,0,Custom,2013-02-03 00:21:00,
2013-02-02 18:26:00,36.6,30.0,30.03,WNW,294,0.0,0.0,76,0.00,,,0.00,0,Custom,2013-02-03 00:26:00,
2013-02-02 18:31:00,36.3,30.0,30.03,WNW,294,0.0,0.0,77,0.00,,,0.00,0,Custom,2013-02-03 00:31:00,
2013-02-02 18:36:00,36.2,30.0,30.03,WNW,294,0.0,0.0,78,0.00,,,0.00,0,Custom,2013-02-03 00:36:00,
2013-02-02 18:41:00,36.0,30.0,30.03,WNW,294,0.0,0.0,79,0.00,,,0.00,0,Custom,2013-02-03 00:41:00,
2013-02-02 18:46:00,36.3,30.0,30.02,WNW,294,0.0,0.0,79,0.00,,,0.00,0,Custom,2013-02-03 00:46:00,
2013-02-02 18:51:00,35.7,30.0,30.03,WNW,294,0.0,0.0,79,0.00,,,0.00,0,Custom,2013-02-03 00:51:00,
2013-02-02 18:56:00,35.7,30.0,30.03,WNW,294,0.0,0.0,79,0.00,,,0.00,0,Custom,2013-02-03 00:56:00,
2013-02-02 19:01:00,35.3,30.0,30.03,WNW,294,0.0,0.0,80,0.00,,,0.00,0,Custom,2013-02-03 01:01:00,
2013-02-02 19:06:00,35.1,30.0,30.03,WNW,294,0.0,0.0,80,0.00,,,0.00,0,Custom,2013-02-03 01:06:00,
2013-02-02 19:11:00,35.1,30.0,30.03,WNW,294,0.0,0.0,81,0.00,,,0.00,0,Custom,2013-02-03 01:11:00,
2013-02-02 19:16:00,35.4,30.0,30.03,WNW,294,0.0,0.0,81,0.00,,,0.00,0,Custom,2013-02-03 01:16:00,
2013-02-02 19:21:00,35.1,30.0,30.03,WNW,294,0.0,0.0,81,0.00,,,0.00,0,Custom,2013-02-03 01:21:00,
2013-02-02 19:26:00,34.7,29.0,30.03,WNW,294,0.0,0.0,80,0.00,,,0.00,0,Custom,2013-02-03 01:26:00,
2013-02-02 19:31:00,34.4,29.0,30.03,WNW,294,0.0,0.0,82,0.00,,,0.00,0,Custom,2013-02-03 01:31:00,
2013-02-02 19:36:00,34.6,30.0,30.02,WNW,294,0.0,0.0,82,0.00,,,0.00,0,Custom,2013-02-03 01:36:00,
2013-02-02 19:41:00,34.7,30.0,30.02,WNW,294,0.0,0.0,82,0.00,,,0.00,0,Custom,2013-02-03 01:41:00,
2013-02-02 19:46:00,34.8,30.0,30.02,WNW,294,0.0,0.0,82,0.00,,,0.00,0,Custom,2013-02-03 01:46:00,
2013-02-02 19:51:00,35.0,30.0,30.02,WNW,294,0.0,0.0,82,0.00,,,0.00,0,Custom,2013-02-03 01:51:00,
2013-02-02 19:56:00,35.1,30.0,30.02,WNW,294,0.0,0.0,82,0.00,,,0.00,0,Custom,2013-02-03 01:56:00,
2013-02-02 20:01:00,36.0,31.0,30.02,WNW,294,0.0,1.0,82,0.00,,,0.00,0,Custom,2013-02-03 02:01:00,
2013-02-02 20:06:00,36.6,31.0,30.02,WNW,294,0.0,0.0,82,0.00,,,0.00,0,Custom,2013-02-03 02:06:00,
2013-02-02 20:11:00,37.5,32.0,30.02,WNW,294,0.0,1.0,81,0.00,,,0.00,0,Custom,2013-02-03 02:11:00,
2013-02-02 20:16:00,38.3,32.0,30.02,WNW,294,0.0,1.0,79,0.00,,,0.00,0,Custom,2013-02-03 02:16:00,
2013-02-02 20:21:00,38.5,32.0,30.02,WNW,294,0.0,1.0,78,0.00,,,0.00,0,Custom,2013-02-03 02:21:00,
2013-02-02 20:26:00,38.8,32.0,30.01,WNW,294,0.0,1.0,78,0.00,,,0.00,0,Custom,2013-02-03 02:26:00,
2013-02-02 20:31:00,39.3,33.0,30.01,WNW,294,0.0,2.0,76,0.00,,,0.00,0,Custom,2013-02-03 02:31:00,
2013-02-02 20:36:00,39.5,33.0,30.01,WNW,294,0.0,0.0,76,0.00,,,0.00,0,Custom,2013-02-03 02:36:00,
2013-02-02 20:41:00,39.5,32.0,30.01,WNW,294,0.0,0.0,76,0.00,,,0.00,0,Custom,2013-02-03 02:41:00,
2013-02-02 20:46:00,39.8,33.0,30.00,West,264,0.0,2.0,75,0.00,,,0.00,0,Custom,2013-02-03 02:46:00,
2013-02-02 20:51:00,40.3,33.0,30.00,SSW,194,0.0,3.0,75,0.00,,,0.00,0,Custom,2013-02-03 02:51:00,
2013-02-02 20:56:00,40.3,33.0,29.99,SSW,194,0.0,0.0,74,0.00,,,0.00,0,Custom,2013-02-03 02:56:00,
2013-02-02 21:01:00,40.6,33.0,29.99,SSW,192,0.0,5.0,74,0.00,,,0.00,0,Custom,2013-02-03 03:01:00,
2013-02-02 21:06:00,40.9,33.0,29.99,SSW,192,0.0,1.0,73,0.00,,,0.00,0,Custom,2013-02-03 03:06:00,
2013-02-02 21:11:00,40.8,33.0,29.99,SSW,192,0.0,0.0,73,0.00,,,0.00,0,Custom,2013-02-03 03:11:00,
2013-02-02 21:16:00,41.0,33.0,29.99,SSW,196,0.0,1.0,73,0.00,,,0.00,0,Custom,2013-02-03 03:16:00,
2013-02-02 21:21:00,41.2,33.0,29.99,SSW,202,2.0,2.0,72,0.00,,,0.00,0,Custom,2013-02-03 03:21:00,
2013-02-02 21:26:00,41.7,33.0,29.98,SW,223,2.0,2.0,71,0.00,,,0.00,0,Custom,2013-02-03 03:26:00,
2013-02-02 21:31:00,42.1,33.0,29.99,West,276,3.0,3.0,70,0.00,,,0.00,0,Custom,2013-02-03 03:31:00,
2013-02-02 21:36:00,42.5,33.0,29.99,WNW,285,3.0,5.0,69,0.00,,,0.00,0,Custom,2013-02-03 03:36:00,
2013-02-02 21:41:00,42.9,33.0,29.99,West,261,2.0,6.0,68,0.00,,,0.00,0,Custom,2013-02-03 03:41:00,
2013-02-02 21:46:00,42.9,33.0,30.00,WNW,293,3.0,6.0,68,0.00,,,0.00,0,Custom,2013-02-03 03:46:00,
2013-02-02 21:51:00,42.8,33.0,30.00,WNW,282,2.0,4.0,68,0.00,,,0.00,0,Custom,2013-02-03 03:51:00,
2013-02-02 21:56:00,42.6,33.0,30.01,WNW,285,0.0,5.0,68,0.00,,,0.00,0,Custom,2013-02-03 03:56:00,
2013-02-02 22:01:00,42.5,33.0,30.01,WNW,288,2.0,6.0,68,0.00,,,0.00,0,Custom,2013-02-03 04:01:00,
2013-02-02 22:06:00,42.3,33.0,30.01,West,278,3.0,6.0,68,0.00,,,0.00,0,Custom,2013-02-03 04:06:00,
2013-02-02 22:12:00,42.0,32.0,30.02,West,276,1.0,4.0,69,0.00,,,0.00,0,Custom,2013-02-03 04:12:00,
2013-02-02 22:17:00,42.9,33.0,30.02,West,279,0.0,7.0,68,0.00,,,0.00,0,Custom,2013-02-03 04:17:00,
2013-02-02 22:22:00,42.6,32.0,30.02,WNW,284,4.0,4.0,67,0.00,,,0.00,0,Custom,2013-02-03 04:22:00,
2013-02-02 22:27:00,42.9,33.0,30.02,WNW,292,0.0,5.0,67,0.00,,,0.00,0,Custom,2013-02-03 04:27:00,
2013-02-02 22:32:00,42.7,32.0,30.02,WNW,284,2.0,6.0,67,0.00,,,0.00,0,Custom,2013-02-03 04:32:00,
2013-02-02 22:37:00,42.4,33.0,30.02,West,262,0.0,4.0,67,0.00,,,0.00,0,Custom,2013-02-03 04:37:00,
2013-02-02 22:42:00,42.2,32.0,30.02,WNW,288,0.0,5.0,67,0.00,,,0.00,0,Custom,2013-02-03 04:42:00,
2013-02-02 22:47:00,42.5,33.0,30.02,WNW,282,1.0,4.0,68,0.00,,,0.00,0,Custom,2013-02-03 04:47:00,
2013-02-02 22:52:00,42.5,33.0,30.02,West,277,2.0,4.0,68,0.00,,,0.00,0,Custom,2013-02-03 04:52:00,
2013-02-02 22:57:00,42.3,33.0,30.02,WNW,283,3.0,5.0,68,0.00,,,0.00,0,Custom,2013-02-03 04:57:00,
2013-02-02 23:00:00,42.1,32.0,30.02,WNW,283,1.0,3.0,68,0.00,,,0.00,0,Custom,2013-02-03 05:00:00,
2013-02-02 23:01:00,42.1,32.0,30.02,WNW,283,0.0,3.0,68,0.00,,,0.00,0,Custom,2013-02-03 05:01:00,
2013-02-02 23:02:00,42.1,32.0,30.02,WNW,283,4.0,4.0,68,0.00,,,0.00,0,Custom,2013-02-03 05:02:00,
2013-02-02 23:04:00,42.1,32.0,30.02,WNW,283,0.0,4.0,68,0.00,,,0.00,0,Custom,2013-02-03 05:04:00,
2013-02-02 23:09:00,41.5,32.0,30.02,WNW,283,0.0,2.0,69,0.00,,,0.00,0,Custom,2013-02-03 05:09:00,
2013-02-02 23:14:00,41.2,32.0,30.03,WNW,283,0.0,2.0,69,0.00,,,0.00,0,Custom,2013-02-03 05:14:00,
2013-02-02 23:19:00,41.1,32.0,30.03,WNW,283,2.0,3.0,70,0.00,,,0.00,0,Custom,2013-02-03 05:19:00,
2013-02-02 23:24:00,40.7,32.0,30.03,WNW,283,3.0,4.0,70,0.00,,,0.00,0,Custom,2013-02-03 05:24:00,
2013-02-02 23:29:00,40.7,32.0,30.03,WNW,283,4.0,4.0,71,0.00,,,0.00,0,Custom,2013-02-03 05:29:00,
2013-02-02 23:34:00,40.6,32.0,30.04,WNW,283,0.0,4.0,71,0.00,,,0.00,0,Custom,2013-02-03 05:34:00,
2013-02-02 23:39:00,40.4,32.0,30.04,WNW,283,0.0,2.0,71,0.00,,,0.00,0,Custom,2013-02-03 05:39:00,
2013-02-02 23:44:00,40.1,32.0,30.04,WNW,283,0.0,2.0,72,0.00,,,0.00,0,Custom,2013-02-03 05:44:00,
2013-02-02 23:49:00,39.9,32.0,30.04,WNW,283,0.0,0.0,72,0.00,,,0.00,0,Custom,2013-02-03 05:49:00,
2013-02-02 23:54:00,39.9,32.0,30.05,WNW,283,0.0,3.0,72,0.00,,,0.00,0,Custom,2013-02-03 05:54:00,
2013-02-02 23:59:00,39.6,31.0,30.05,WNW,283,0.0,1.0,72,0.00,,,0.00,0,Custom,2013-02-03 05:59:00,